QPF
0.02 0.02 0.02 0.03 0.04 0.05 0.05 0.07 0.06 0.03 0.03 0.03 0.02 0.02 0.02 0.02 0.02 0.02 0.01 0.00 0.00 0.00 0.00 0.00 0.00 0.00 0.00 0.01 0.00 0.01 0.01 0.01 0.01 0.00 0.00 0.01 0.02 0.02 0.01 0.01 0.01 0.01 0.01
0.02 0.02 0.01 0.02 0.03 0.05 0.04 0.04 0.04 0.03 0.03 0.03 0.03 0.02 0.02 0.03 0.03 0.03 0.02 0.01 0.00 0.00 0.00 0.00 0.00 0.00 0.00 0.00 0.00 0.00 0.01 0.01 0.01 0.00 0.00 0.01 0.02 0.02 0.02 0.01 0.01 0.01 0.01
0.01 0.02 0.01 0.02 0.02 0.02 0.04 0.03 0.03 0.03 0.03 0.03 0.03 0.03 0.03 0.03 0.03 0.03 0.02 0.02 0.01 0.00 0.00 0.00 0.00 0.00 0.00 0.00 0.00 0.00 0.01 0.01 0.02 0.01 0.01 0.01 0.02 0.03 0.02 0.01 0.01 0.01 0.01
0.03 0.03 0.03 0.03 0.02 0.02 0.02 0.03 0.03 0.03 0.03 0.04 0.04 0.03 0.03 0.03 0.02 0.02 0.02 0.02 0.01 0.01 0.01 0.00 0.01 0.00 0.00 0.01 0.01 0.01 0.01 0.01 0.02 0.01 0.01 0.01 0.01 0.02 0.03 0.02 0.02 0.01 0.01
0.02 0.01 0.02 0.02 0.02 0.02 0.02 0.02 0.02 0.03 0.03 0.03 0.04 0.03 0.03 0.03 0.03 0.03 0.03 0.03 0.02 0.01 0.01 0.00 0.01 0.01 0.01 0.01 0.01 0.01 0.01 0.01 0.01 0.01 0.01 0.01 0.01 0.03 0.03 0.03 0.02 0.02 0.02
0.02 0.01 0.01 0.02 0.02 0.02 0.02 0.02 0.03 0.03 0.02 0.03 0.03 0.03 0.02 0.03 0.04 0.04 0.04 0.04 0.04 0.02 0.01 0.01 0.01 0.01 0.01 0.01 0.01 0.02 0.01 0.01 0.01 0.01 0.01 0.01 0.02 0.03 0.04 0.03 0.03 0.03 0.02
0.03 0.01 0.01 0.01 0.02 0.02 0.02 0.03 0.03 0.02 0.02 0.03 0.03 0.03 0.02 0.03 0.04 0.06 0.05 0.04 0.05 0.04 0.02 0.01 0.01 0.01 0.01 0.01 0.01 0.01 0.01 0.01 0.02 0.02 0.02 0.02 0.02 0.03 0.04 0.04 0.04 0.04 0.02
0.04 0.02 0.02 0.01 0.01 0.03 0.03 0.03 0.03 0.02 0.02 0.02 0.02 0.03 0.02 0.02 0.03 0.04 0.04 0.04 0.04 0.04 0.03 0.02 0.01 0.01 0.01 0.01 0.01 0.01 0.01 0.01 0.01 0.01 0.02 0.02 0.02 0.03 0.04 0.04 0.04 0.04 0.03
0.04 0.03 0.01 0.01 0.01 0.03 0.03 0.04 0.03 0.02 0.01 0.01 0.02 0.02 0.03 0.03 0.03 0.03 0.03 0.03 0.03 0.04 0.03 0.02 0.01 0.01 0.01 0.02 0.01 0.00 0.00 0.00 0.01 0.01 0.01 0.02 0.03 0.03 0.04 0.05 0.04 0.04 0.03
0.05 0.03 0.02 0.02 0.03 0.03 0.04 0.03 0.03 0.02 0.01 0.01 0.01 0.01 0.02 0.02 0.03 0.03 0.03 0.02 0.02 0.03 0.02 0.02 0.03 0.02 0.02 0.02 0.01 0.01 0.01 0.00 0.01 0.01 0.01 0.01 0.02 0.03 0.03 0.04 0.05 0.05 0.04
0.04 0.03 0.04 0.05 0.05 0.04 0.04 0.04 0.02 0.02 0.01 0.01 0.01 0.01 0.01 0.02 0.03 0.03 0.03 0.02 0.02 0.02 0.02 0.02 0.02 0.03 0.03 0.03 0.02 0.01 0.01 0.01 0.01 0.01 0.01 0.01 0.02 0.02 0.02 0.03 0.05 0.05 0.04
0.03 0.03 0.03 0.06 0.06 0.05 0.06 0.04 0.03 0.02 0.01 0.01 0.01 0.01 0.01 0.01 0.02 0.02 0.03 0.03 0.03 0.02 0.02 0.01 0.01 0.02 0.03 0.02 0.02 0.01 0.01 0.01 0.01 0.01 0.01 0.02 0.02 0.02 0.02 0.03 0.04 0.06 0.05
0.02 0.03 0.04 0.04 0.04 0.05 0.06 0.06 0.04 0.03 0.02 0.01 0.01 0.01 0.01 0.01 0.01 0.02 0.03 0.03 0.02 0.02 0.02 0.02 0.02 0.02 0.02 0.02 0.01 0.01 0.01 0.01 0.01 0.01 0.02 0.02 0.02 0.02 0.02 0.03 0.04 0.05 0.06
0.02 0.03 0.04 0.05 0.04 0.03 0.04 0.06 0.07 0.05 0.03 0.02 0.01 0.01 0.01 0.02 0.02 0.02 0.03 0.03 0.03 0.02 0.02 0.03 0.03 0.02 0.02 0.02 0.02 0.01 0.01 0.01 0.01 0.01 0.02 0.02 0.02 0.02 0.03 0.03 0.03 0.04 0.05
0.02 0.03 0.03 0.04 0.04 0.03 0.02 0.04 0.06 0.06 0.04 0.03 0.02 0.02 0.02 0.02 0.02 0.03 0.03 0.04 0.04 0.04 0.03 0.03 0.05 0.04 0.03 0.02 0.02 0.02 0.01 0.01 0.01 0.02 0.02 0.02 0.02 0.02 0.02 0.02 0.02 0.02 0.04
0.01 0.02 0.03 0.04 0.05 0.05 0.04 0.03 0.04 0.04 0.04 0.02 0.02 0.02 0.02 0.02 0.03 0.04 0.04 0.04 0.04 0.04 0.04 0.05 0.06 0.06 0.05 0.04 0.02 0.02 0.03 0.03 0.03 0.03 0.03 0.03 0.03 0.03 0.03 0.03 0.03 0.02 0.03
0.00 0.01 0.01 0.02 0.04 0.06 0.06 0.05 0.04 0.03 0.04 0.05 0.03 0.03 0.03 0.02 0.02 0.02 0.02 0.03 0.04 0.04 0.05 0.05 0.05 0.05 0.05 0.05 0.04 0.03 0.03 0.04 0.04 0.04 0.04 0.03 0.03 0.03 0.03 0.03 0.03 0.03 0.03
0.00 0.01 0.01 0.01 0.02 0.05 0.08 0.09 0.07 0.03 0.03 0.03 0.02 0.02 0.03 0.02 0.02 0.02 0.02 0.02 0.03 0.05 0.04 0.04 0.04 0.04 0.04 0.05 0.04 0.03 0.03 0.04 0.04 0.04 0.04 0.03 0.03 0.03 0.03 0.02 0.03 0.03 0.03
0.01 0.01 0.01 0.01 0.01 0.02 0.04 0.07 0.10 0.07 0.04 0.04 0.03 0.03 0.03 0.03 0.02 0.02 0.02 0.03 0.04 0.05 0.05 0.04 0.04 0.04 0.04 0.04 0.05 0.05 0.04 0.03 0.02 0.02 0.02 0.03 0.03 0.03 0.02 0.02 0.02 0.03 0.03
0.02 0.01 0.01 0.00 0.01 0.01 0.02 0.03 0.05 0.09 0.08 0.05 0.04 0.04 0.03 0.03 0.02 0.02 0.02 0.03 0.04 0.05 0.05 0.05 0.05 0.05 0.05 0.06 0.07 0.07 0.07 0.05 0.02 0.01 0.01 0.01 0.02 0.02 0.01 0.01 0.02 0.02 0.03
0.02 0.02 0.02 0.01 0.01 0.01 0.01 0.01 0.02 0.03 0.05 0.05 0.04 0.03 0.03 0.03 0.02 0.02 0.02 0.03 0.03 0.03 0.03 0.04 0.04 0.05 0.06 0.07 0.09 0.10 0.09 0.07 0.04 0.02 0.01 0.01 0.01 0.01 0.01 0.01 0.01 0.02 0.02
0.02 0.02 0.02 0.02 0.01 0.01 0.02 0.01 0.01 0.01 0.02 0.02 0.03 0.03 0.02 0.02 0.01 0.01 0.01 0.01 0.02 0.02 0.02 0.02 0.03 0.04 0.05 0.06 0.07 0.09 0.09 0.07 0.05 0.04 0.03 0.02 0.02 0.02 0.02 0.02 0.02 0.02 0.02
0.02 0.02 0.02 0.02 0.02 0.02 0.02 0.02 0.02 0.02 0.02 0.01 0.01 0.02 0.01 0.01 0.01 0.01 0.01 0.01 0.01 0.01 0.01 0.01 0.02 0.03 0.04 0.04 0.05 0.06 0.06 0.06 0.06 0.06 0.05 0.04 0.03 0.03 0.03 0.03 0.02 0.02 0.02
0.02 0.02 0.02 0.02 0.02 0.02 0.02 0.02 0.02 0.02 0.02 0.02 0.02 0.01 0.01 0.01 0.01 0.02 0.02 0.01 0.01 0.01 0.01 0.01 0.01 0.02 0.03 0.03 0.03 0.04 0.05 0.04 0.03 0.03 0.05 0.05 0.04 0.04 0.04 0.04 0.03 0.02 0.02
0.01 0.01 0.01 0.01 0.02 0.02 0.02 0.02 0.02 0.03 0.03 0.03 0.02 0.01 0.01 0.01 0.01 0.01 0.01 0.01 0.01 0.01 0.01 0.01 0.01 0.01 0.02 0.02 0.03 0.03 0.03 0.03 0.02 0.02 0.02 0.02 0.02 0.03 0.04 0.04 0.03 0.02 0.02
0.00 0.00 0.01 0.01 0.01 0.01 0.01 0.01 0.02 0.02 0.02 0.03 0.02 0.01 0.01 0.00 0.01 0.01 0.01 0.01 0.01 0.01 0.01 0.01 0.01 0.01 0.01 0.01 0.02 0.03 0.02 0.02 0.01 0.02 0.02 0.02 0.02 0.03 0.03 0.04 0.04 0.03 0.02
MSLP
1009.22 1010.15 1011.05 1011.89 1012.64 1013.31 1013.90 1014.44 1014.97 1015.49 1016.04 1016.61 1017.20 1017.78 1018.34 1018.85 1019.30 1019.70 1020.04 1020.35 1020.64 1020.94 1021.26 1021.61 1022.00 1022.40 1022.82 1023.23 1023.61 1023.95 1024.24 1024.48 1024.66 1024.81 1024.91 1024.99 1025.05 1025.11 1025.17 1025.23 1025.30 1025.37 1025.46
1008.74 1009.64 1010.52 1011.34 1012.08 1012.75 1013.35 1013.92 1014.47 1015.03 1015.61 1016.21 1016.83 1017.43 1018.02 1018.56 1019.04 1019.47 1019.85 1020.19 1020.51 1020.83 1021.16 1021.51 1021.87 1022.26 1022.65 1023.03 1023.40 1023.74 1024.06 1024.33 1024.58 1024.79 1024.97 1025.13 1025.28 1025.41 1025.53 1025.66 1025.78 1025.91 1026.03
1008.36 1009.22 1010.05 1010.83 1011.54 1012.20 1012.80 1013.38 1013.95 1014.54 1015.15 1015.79 1016.43 1017.07 1017.68 1018.25 1018.77 1019.23 1019.64 1020.02 1020.37 1020.71 1021.05 1021.40 1021.75 1022.13 1022.50 1022.87 1023.23 1023.58 1023.91 1024.21 1024.50 1024.77 1025.01 1025.24 1025.45 1025.65 1025.84 1026.02 1026.20 1026.38 1026.56
1008.06 1008.87 1009.65 1010.38 1011.06 1011.68 1012.27 1012.86 1013.45 1014.06 1014.70 1015.37 1016.04 1016.71 1017.35 1017.95 1018.49 1018.98 1019.43 1019.83 1020.20 1020.56 1020.91 1021.26 1021.62 1021.98 1022.34 1022.70 1023.06 1023.41 1023.75 1024.07 1024.39 1024.69 1024.98 1025.26 1025.52 1025.77 1026.01 1026.25 1026.49 1026.72 1026.96
1007.81 1008.57 1009.30 1009.97 1010.60 1011.20 1011.78 1012.36 1012.97 1013.60 1014.27 1014.97 1015.67 1016.37 1017.03 1017.65 1018.22 1018.73 1019.19 1019.61 1020.00 1020.37 1020.74 1021.09 1021.45 1021.81 1022.16 1022.52 1022.87 1023.21 1023.55 1023.89 1024.22 1024.54 1024.85 1025.15 1025.45 1025.73 1026.02 1026.30 1026.59 1026.89 1027.19
1007.51 1008.24 1008.93 1009.56 1010.16 1010.73 1011.30 1011.89 1012.51 1013.17 1013.87 1014.60 1015.33 1016.05 1016.73 1017.37 1017.95 1018.47 1018.94 1019.37 1019.77 1020.15 1020.52 1020.88 1021.24 1021.60 1021.95 1022.30 1022.64 1022.98 1023.31 1023.65 1023.97 1024.29 1024.61 1024.92 1025.23 1025.54 1025.85 1026.17 1026.51 1026.86 1027.22
1007.07 1007.80 1008.48 1009.10 1009.68 1010.25 1010.82 1011.43 1012.07 1012.76 1013.49 1014.24 1014.99 1015.73 1016.42 1017.06 1017.65 1018.18 1018.66 1019.10 1019.51 1019.90 1020.27 1020.64 1021.00 1021.36 1021.71 1022.05 1022.39 1022.72 1023.04 1023.36 1023.68 1023.99 1024.30 1024.60 1024.91 1025.23 1025.56 1025.91 1026.28 1026.67 1027.09
1006.44 1007.20 1007.89 1008.53 1009.13 1009.72 1010.33 1010.96 1011.64 1012.36 1013.11 1013.88 1014.65 1015.38 1016.08 1016.72 1017.31 1017.84 1018.33 1018.78 1019.20 1019.60 1019.99 1020.37 1020.74 1021.11 1021.46 1021.80 1022.14 1022.46 1022.77 1023.07 1023.37 1023.66 1023.96 1024.25 1024.55 1024.87 1025.20 1025.56 1025.95 1026.37 1026.83
1005.59 1006.41 1007.16 1007.85 1008.50 1009.15 1009.80 1010.49 1011.21 1011.96 1012.73 1013.51 1014.27 1015.00 1015.69 1016.33 1016.92 1017.45 1017.95 1018.41 1018.85 1019.28 1019.69 1020.09 1020.48 1020.86 1021.22 1021.57 1021.90 1022.22 1022.52 1022.81 1023.10 1023.38 1023.65 1023.94 1024.22 1024.53 1024.86 1025.22 1025.61 1026.04 1026.51
1004.58 1005.47 1006.30 1007.07 1007.81 1008.54 1009.26 1010.01 1010.77 1011.55 1012.33 1013.11 1013.86 1014.58 1015.26 1015.88 1016.46 1017.00 1017.51 1018.00 1018.47 1018.92 1019.37 1019.80 1020.22 1020.62 1021.00 1021.36 1021.70 1022.02 1022.32 1022.61 1022.88 1023.16 1023.42 1023.69 1023.97 1024.27 1024.58 1024.93 1025.31 1025.73 1026.19
1003.51 1004.48 1005.40 1006.27 1007.10 1007.91 1008.72 1009.53 1010.34 1011.14 1011.93 1012.70 1013.44 1014.13 1014.78 1015.39 1015.96 1016.51 1017.03 1017.55 1018.05 1018.55 1019.03 1019.50 1019.95 1020.38 1020.78 1021.16 1021.51 1021.84 1022.15 1022.44 1022.72 1023.00 1023.27 1023.54 1023.81 1024.09 1024.39 1024.72 1025.08 1025.47 1025.90
1002.52 1003.55 1004.54 1005.49 1006.42 1007.32 1008.21 1009.08 1009.93 1010.75 1011.54 1012.29 1012.99 1013.66 1014.28 1014.87 1015.43 1015.98 1016.53 1017.07 1017.61 1018.14 1018.67 1019.17 1019.66 1020.11 1020.54 1020.94 1021.31 1021.65 1021.98 1022.29 1022.58 1022.87 1023.15 1023.43 1023.70 1023.98 1024.27 1024.57 1024.90 1025.26 1025.65
1001.72 1002.77 1003.80 1004.82 1005.81 1006.79 1007.74 1008.66 1009.54 1010.37 1011.15 1011.88 1012.55 1013.18 1013.77 1014.34 1014.89 1015.45 1016.01 1016.57 1017.14 1017.71 1018.27 1018.80 1019.31 1019.79 1020.24 1020.65 1021.04 1021.40 1021.75 1022.08 1022.40 1022.72 1023.02 1023.32 1023.60 1023.89 1024.17 1024.46 1024.76 1025.08 1025.43
1001.20 1002.22 1003.24 1004.28 1005.31 1006.32 1007.31 1008.26 1009.15 1009.99 1010.76 1011.46 1012.10 1012.70 1013.26 1013.81 1014.36 1014.92 1015.49 1016.07 1016.66 1017.24 1017.82 1018.37 1018.90 1019.39 1019.84 1020.26 1020.66 1021.04 1021.41 1021.77 1022.12 1022.47 1022.80 1023.13 1023.44 1023.74 1024.03 1024.31 1024.59 1024.88 1025.19
1000.99 1001.91 1002.87 1003.87 1004.89 1005.91 1006.90 1007.86 1008.75 1009.58 1010.33 1011.01 1011.63 1012.21 1012.75 1013.29 1013.83 1014.39 1014.96 1015.55 1016.15 1016.74 1017.32 1017.87 1018.39 1018.87 1019.32 1019.74 1020.15 1020.54 1020.92 1021.30 1021.69 1022.07 1022.45 1022.81 1023.15 1023.48 1023.78 1024.07 1024.35 1024.63 1024.92
1001.05 1001.82 1002.66 1003.58 1004.53 1005.51 1006.48 1007.41 1008.29 1009.10 1009.84 1010.51 1011.11 1011.68 1012.22 1012.76 1013.30 1013.86 1014.43 1015.02 1015.61 1016.19 1016.75 1017.29 1017.78 1018.25 1018.68 1019.09 1019.48 1019.87 1020.27 1020.68 1021.09 1021.51 1021.92 1022.32 1022.70 1023.06 1023.39 1023.70 1023.99 1024.28 1024.57
1001.28 1001.87 1002.56 1003.34 1004.20 1005.09 1006.00 1006.88 1007.73 1008.52 1009.24 1009.91 1010.51 1011.08 1011.63 1012.18 1012.73 1013.29 1013.87 1014.45 1015.03 1015.59 1016.12 1016.62 1017.09 1017.52 1017.92 1018.31 1018.69 1019.08 1019.48 1019.89 1020.33 1020.77 1021.22 1021.65 1022.07 1022.46 1022.83 1023.17 1023.50 1023.81 1024.13
1001.62 1002.01 1002.52 1003.14 1003.86 1004.64 1005.46 1006.28 1007.07 1007.83 1008.54 1009.19 1009.81 1010.39 1010.96 1011.52 1012.09 1012.66 1013.24 1013.81 1014.38 1014.91 1015.42 1015.88 1016.31 1016.71 1017.08 1017.43 1017.80 1018.17 1018.57 1018.99 1019.43 1019.89 1020.36 1020.83 1021.27 1021.70 1022.10 1022.48 1022.85 1023.20 1023.56
1002.02 1002.20 1002.52 1002.98 1003.54 1004.19 1004.89 1005.61 1006.34 1007.05 1007.73 1008.38 1009.00 1009.60 1010.18 1010.77 1011.35 1011.94 1012.52 1013.08 1013.63 1014.14 1014.62 1015.05 1015.44 1015.81 1016.15 1016.48 1016.83 1017.19 1017.58 1018.00 1018.45 1018.91 1019.39 1019.87 1020.34 1020.79 1021.22 1021.64 1022.04 1022.44 1022.85
1002.46 1002.46 1002.61 1002.89 1003.29 1003.78 1004.35 1004.96 1005.60 1006.24 1006.87 1007.50 1008.11 1008.71 1009.31 1009.90 1010.50 1011.09 1011.67 1012.23 1012.76 1013.25 1013.70 1014.11 1014.48 1014.82 1015.15 1015.47 1015.80 1016.15 1016.54 1016.95 1017.39 1017.86 1018.34 1018.82 1019.29 1019.76 1020.21 1020.65 1021.10 1021.54 1022.01
1002.97 1002.83 1002.82 1002.94 1003.17 1003.51 1003.93 1004.41 1004.93 1005.48 1006.04 1006.61 1007.18 1007.76 1008.35 1008.94 1009.53 1010.11 1010.68 1011.23 1011.74 1012.22 1012.66 1013.05 1013.41 1013.74 1014.06 1014.38 1014.71 1015.06 1015.44 1015.86 1016.29 1016.75 1017.22 1017.70 1018.17 1018.64 1019.10 1019.56 1020.03 1020.52 1021.03
1003.61 1003.36 1003.22 1003.19 1003.27 1003.45 1003.71 1004.04 1004.42 1004.85 1005.30 1005.79 1006.29 1006.82 1007.36 1007.91 1008.47 1009.02 1009.57 1010.09 1010.59 1011.04 1011.47 1011.85 1012.21 1012.54 1012.87 1013.20 1013.54 1013.91 1014.30 1014.72 1015.15 1015.61 1016.07 1016.54 1017.00 1017.47 1017.93 1018.40 1018.89 1019.40 1019.95
1004.42 1004.09 1003.85 1003.70 1003.63 1003.66 1003.76 1003.93 1004.16 1004.43 1004.76 1005.12 1005.52 1005.95 1006.40 1006.88 1007.37 1007.87 1008.37 1008.85 1009.31 1009.74 1010.15 1010.53 1010.89 1011.24 1011.59 1011.94 1012.30 1012.69 1013.10 1013.53 1013.98 1014.43 1014.89 1015.35 1015.81 1016.27 1016.73 1017.21 1017.71 1018.23 1018.80
1005.38 1005.00 1004.69 1004.43 1004.25 1004.13 1004.08 1004.09 1004.15 1004.27 1004.44 1004.66 1004.92 1005.22 1005.56 1005.93 1006.32 1006.73 1007.15 1007.56 1007.97 1008.37 1008.75 1009.12 1009.49 1009.85 1010.22 1010.60 1011.00 1011.41 1011.85 1012.30 1012.77 1013.23 1013.70 1014.17 1014.62 1015.08 1015.54 1016.02 1016.52 1017.05 1017.63
1006.43 1006.03 1005.66 1005.34 1005.05 1004.82 1004.63 1004.50 1004.41 1004.36 1004.37 1004.43 1004.53 1004.69 1004.88 1005.12 1005.39 1005.69 1006.00 1006.33 1006.67 1007.02 1007.36 1007.71 1008.07 1008.44 1008.82 1009.23 1009.66 1010.10 1010.57 1011.05 1011.53 1012.02 1012.50 1012.98 1013.45 1013.91 1014.38 1014.86 1015.36 1015.89 1016.46
1007.49 1007.07 1006.68 1006.31 1005.96 1005.63 1005.34 1005.08 1004.86 1004.68 1004.54 1004.44 1004.39 1004.39 1004.44 1004.53 1004.66 1004.83 1005.03 1005.26 1005.51 1005.78 1006.07 1006.39 1006.72 1007.09 1007.47 1007.89 1008.33 1008.80 1009.28 1009.78 1010.29 1010.80 1011.30 1011.80 1012.28 1012.76 1013.24 1013.73 1014.23 1014.75 1015.31
Thickness
5654 5652 5650 5648 5647 5645 5643 5641 5640 5638 5637 5635 5633 5631 5630 5628 5627 5625 5623 5622 5620 5619 5618 5617 5615 5615 5613 5612 5611 5610 5609 5608 5606 5606 5608 5610 5611 5613 5615 5616 5618 5620 5621
5649 5646 5644 5642 5640 5638 5636 5635 5633 5631 5630 5628 5627 5624 5623 5621 5620 5618 5615 5614 5612 5610 5609 5608 5607 5607 5605 5604 5602 5602 5601 5601 5599 5598 5599 5601 5602 5604 5606 5608 5610 5612 5614
5643 5640 5637 5635 5633 5631 5630 5628 5627 5624 5622 5620 5619 5616 5614 5613 5611 5610 5608 5606 5604 5603 5601 5600 5599 5598 5596 5595 5594 5593 5593 5594 5592 5590 5590 5591 5593 5595 5596 5598 5601 5603 5605
5635 5633 5630 5628 5626 5624 5623 5621 5619 5617 5614 5612 5610 5608 5606 5604 5603 5601 5599 5597 5595 5594 5593 5592 5591 5590 5588 5587 5586 5585 5584 5583 5582 5581 5581 5581 5582 5584 5586 5587 5589 5593 5595
5628 5625 5623 5621 5620 5617 5615 5613 5612 5609 5607 5604 5601 5599 5596 5595 5594 5592 5590 5588 5586 5585 5584 5583 5582 5582 5581 5580 5579 5576 5575 5573 5572 5572 5571 5571 5572 5573 5575 5577 5579 5581 5584
5621 5618 5616 5614 5612 5610 5608 5606 5603 5601 5598 5596 5593 5590 5587 5587 5585 5584 5582 5579 5577 5576 5574 5573 5573 5572 5571 5571 5570 5569 5568 5566 5564 5563 5562 5562 5563 5565 5566 5569 5569 5570 5572
5614 5612 5609 5607 5605 5603 5601 5598 5595 5592 5590 5587 5584 5581 5579 5578 5577 5575 5573 5571 5569 5567 5566 5564 5564 5563 5562 5560 5560 5559 5558 5559 5559 5557 5556 5556 5557 5558 5559 5560 5561 5562 5563
5607 5605 5602 5600 5598 5596 5593 5590 5587 5584 5581 5578 5575 5573 5571 5571 5570 5568 5566 5564 5561 5559 5557 5556 5555 5554 5554 5552 5551 5549 5549 5549 5550 5550 5551 5551 5552 5552 5553 5554 5554 5554 5556
5600 5598 5596 5594 5591 5588 5586 5583 5580 5576 5573 5570 5568 5566 5564 5563 5563 5561 5559 5555 5553 5551 5550 5550 5549 5548 5548 5546 5544 5541 5540 5541 5541 5541 5542 5543 5544 5545 5545 5545 5544 5544 5546
5594 5592 5591 5588 5585 5582 5579 5576 5572 5569 5566 5564 5561 5559 5557 5556 5556 5554 5552 5548 5544 5543 5542 5542 5543 5542 5542 5539 5536 5534 5532 5532 5532 5533 5533 5533 5534 5535 5536 5537 5537 5536 5537
5587 5586 5584 5582 5579 5576 5572 5569 5565 5561 5558 5555 5553 5552 5550 5550 5549 5547 5545 5541 5538 5536 5535 5534 5535 5535 5535 5533 5531 5529 5528 5527 5525 5524 5523 5523 5524 5525 5526 5528 5529 5530 5530
5580 5578 5576 5574 5572 5569 5564 5561 5557 5553 5549 5547 5545 5543 5542 5542 5541 5540 5539 5537 5534 5531 5529 5529 5528 5528 5527 5526 5525 5524 5523 5521 5518 5516 5515 5514 5514 5515 5517 5519 5521 5523 5525
5572 5571 5569 5567 5564 5561 5557 5553 5549 5546 5543 5540 5538 5536 5535 5534 5535 5534 5533 5531 5529 5527 5525 5525 5524 5523 5521 5519 5519 5518 5516 5513 5511 5509 5508 5507 5508 5508 5509 5510 5512 5515 5517
5565 5563 5561 5559 5556 5553 5550 5547 5543 5540 5537 5535 5533 5531 5529 5528 5528 5528 5527 5525 5523 5521 5519 5518 5518 5516 5514 5513 5512 5510 5509 5507 5505 5503 5502 5501 5501 5500 5500 5502 5503 5504 5506
5557 5555 5553 5551 5549 5545 5542 5539 5538 5535 5534 5531 5529 5527 5525 5523 5525 5525 5523 5521 5518 5516 5513 5511 5509 5507 5506 5505 5504 5503 5502 5500 5499 5497 5496 5495 5494 5494 5493 5494 5495 5496 5497
5550 5548 5546 5543 5540 5537 5534 5531 5530 5529 5529 5528 5526 5524 5522 5521 5521 5519 5518 5516 5513 5511 5507 5504 5502 5501 5500 5498 5496 5495 5494 5493 5492 5491 5490 5489 5488 5487 5487 5487 5487 5488 5490
5543 5541 5539 5536 5533 5530 5527 5525 5522 5521 5521 5520 5519 5518 5516 5515 5514 5513 5511 5509 5506 5504 5500 5498 5496 5495 5493 5491 5489 5488 5487 5486 5485 5484 5484 5483 5482 5482 5481 5480 5480 5481 5482
5536 5535 5532 5529 5527 5524 5521 5519 5517 5515 5512 5510 5510 5510 5510 5509 5507 5505 5504 5500 5496 5495 5493 5491 5490 5488 5486 5484 5483 5481 5480 5479 5477 5477 5477 5477 5476 5476 5475 5474 5474 5474 5476
5530 5527 5525 5522 5520 5518 5515 5513 5510 5508 5506 5504 5503 5502 5503 5501 5500 5498 5496 5493 5490 5488 5486 5484 5483 5481 5479 5478 5476 5475 5474 5472 5471 5470 5469 5470 5470 5469 5469 5468 5468 5469 5469
5523 5522 5520 5516 5513 5511 5509 5506 5504 5502 5500 5498 5497 5496 5494 5492 5490 5489 5488 5486 5484 5482 5480 5478 5476 5475 5473 5471 5470 5468 5467 5466 5465 5463 5463 5463 5463 5463 5463 5463 5463 5463 5463
5517 5515 5513 5510 5507 5505 5503 5501 5499 5497 5495 5493 5492 5492 5490 5487 5485 5484 5482 5480 5478 5476 5474 5472 5470 5469 5467 5466 5464 5463 5462 5460 5459 5458 5457 5457 5457 5457 5457 5457 5457 5458 5458
5510 5508 5505 5503 5501 5500 5498 5496 5494 5492 5491 5489 5488 5486 5485 5482 5480 5478 5476 5475 5473 5471 5470 5467 5465 5463 5462 5461 5460 5459 5457 5456 5455 5454 5452 5452 5451 5451 5451 5451 5451 5451 5452
5503 5501 5499 5497 5495 5494 5492 5490 5489 5487 5486 5485 5483 5481 5479 5477 5475 5474 5472 5470 5468 5467 5465 5463 5460 5459 5458 5456 5456 5455 5454 5453 5452 5451 5449 5447 5446 5446 5445 5445 5445 5446 5446
5496 5494 5492 5490 5488 5487 5485 5484 5483 5482 5481 5480 5478 5476 5474 5472 5471 5469 5468 5466 5464 5462 5460 5458 5456 5455 5454 5452 5451 5451 5450 5449 5447 5446 5445 5444 5442 5441 5440 5440 5440 5440 5441
5489 5487 5485 5483 5482 5480 5479 5478 5477 5476 5475 5474 5473 5472 5470 5468 5467 5465 5463 5461 5459 5457 5456 5454 5452 5451 5449 5448 5447 5446 5445 5444 5443 5441 5440 5439 5438 5437 5436 5435 5435 5434 5434
5483 5481 5479 5477 5476 5474 5473 5472 5471 5470 5469 5468 5467 5466 5465 5463 5462 5460 5458 5456 5454 5453 5451 5450 5448 5446 5445 5444 5443 5442 5440 5439 5437 5435 5434 5432 5431 5430 5430 5429 5428 5428 5427